DW7281 Weather Reports


Display with metric or nautical units.
time (UTC)temp
F
wind
direction
speed
MPH
gust
MPH
rain 1hr
in
rain 24hr
in
rain mn
in
humidity
%
barometer
mb
20260901110056 55 0 0.0 0.0 0.00 0.00 0.00 81 1029.0
20260901104555 56 0 0.0 4.0 0.00 0.00 0.00 80 1028.9
20260901103058 56 0 0.0 5.0 0.00 0.00 0.00 80 1028.9
20260901101557 57 0 0.0 4.0 0.00 0.00 0.00 79 1028.9
20260901100101 57 0 0.0 3.0 0.00 0.00 0.00 78 1028.8
20260901094552 58 37 0.0 4.0 0.00 0.00 0.00 76 1028.8
20260901093102 58 0 0.0 4.0 0.00 0.00 0.00 75 1028.7
20260901091555 59 31 0.0 1.0 0.00 0.00 0.00 74 1028.7
20260901090056 59 5 0.0 4.0 0.00 0.00 0.00 73 1028.5
20260901084558 60 0 0.0 5.0 0.00 0.00 0.00 73 1028.3
20260901083058 60 5 0.0 3.0 0.00 0.00 0.00 72 1028.4
20260901081555 61 0 1.0 5.0 0.00 0.00 0.00 71 1028.3
20260901074549 61 0 0.0 8.0 0.00 0.00 0.00 69 1028.2
20260901073059 62 0 0.0 5.0 0.00 0.00 0.00 69 1028.2
20260901071558 62 17 0.0 8.0 0.00 0.00 0.00 68 1028.0
20260901070104 62 19 1.0 8.0 0.00 0.00 0.00 67 1027.9
20260901064551 63 312 1.0 8.0 0.00 0.00 0.00 67 1028.0
20260901063049 63 0 1.0 4.0 0.00 0.00 0.00 66 1028.0
20260901061558 64 0 0.0 5.0 0.00 0.00 0.00 65 1027.9
20260901060051 64 0 0.0 6.0 0.00 0.00 0.00 64 1028.1
20260901054559 64 23 1.0 8.0 0.00 0.00 0.00 65 1028.1
20260901053129 64 0 0.0 11.0 0.00 0.00 0.00 64 1028.1
20260901051549 64 56 2.0 10.0 0.00 0.00 0.00 64 1028.2
20260901050057 65 30 3.0 12.0 0.00 0.00 0.00 62 1028.2
20260901044600 66 0 0.0 8.0 0.00 0.00 0.00 61 1028.4
20260901043054 66 0 3.0 11.0 0.00 0.00 0.00 60 1028.5
20260901041603 67 38 2.0 10.0 0.00 0.00 0.00 60 1028.5
20260901040103 66 0 0.0 13.0 0.00 0.00 0.00 62 1028.9
20260901034550 67 9 2.0 11.0 0.00 0.00 0.00 61 1029.2
20260901033116 67 16 4.0 12.0 0.00 0.00 0.00 59 1029.4
20260901031553 67 350 0.0 11.0 0.00 0.00 0.00 55 1029.5
20260901030106 66 0 1.0 10.0 0.00 0.00 0.00 54 1029.6
20260901024557 67 9 1.0 8.0 0.00 0.00 0.00 56 1029.9
20260901023054 66 0 0.0 12.0 0.00 0.00 0.00 56 1030.0
20260901021605 66 0 0.0 10.0 0.00 0.00 0.00 57 1030.4
20260901020110 66 0 1.0 10.0 0.00 0.00 0.00 58 1030.8
20260901014558 65 59 1.0 12.0 0.00 0.00 0.00 61 1031.0
20260901013115 65 0 2.0 8.0 0.00 0.00 0.00 64 1031.4
20260901011612 65 0 2.0 12.0 0.00 0.00 0.00 66 1031.6
20260901010114 64 15 2.0 11.0 0.00 0.00 0.00 66 1031.8
20260901004611 64 28 1.0 11.0 0.00 0.00 0.00 68 1032.1
20260901003100 62 0 3.0 11.0 0.00 0.00 0.00 70 1032.1
20260901001557 62 26 4.0 11.0 0.00 0.00 0.00 70 1032.4
20260901000100 62 59 2.0 12.0 0.00 0.00 0.00 72 1032.5
20260831234559 61 0 3.0 14.0 0.00 0.00 0.00 74 1032.7
20260831233100 60 17 2.0 13.0 0.00 0.00 0.00 78 1032.6
20260831231557 59 36 3.0 11.0 0.00 0.00 0.00 80 1032.8
20260831230054 60 23 2.0 12.0 0.00 0.00 0.00 78 1033.0
20260831224558 59 0 2.0 11.0 0.00 0.00 0.00 80 1032.8
20260831223058 58 42 3.0 11.0 0.00 0.00 0.00 82 1032.8
20260831221603 56 24 3.0 10.0 0.00 0.00 0.00 83 1032.7
20260831220114 56 28 4.0 11.0 0.00 0.00 0.00 83 1032.6
20260831214608 56 0 3.0 10.0 0.00 0.00 0.00 84 1032.4
20260831213054 55 32 4.0 12.0 0.00 0.00 0.00 85 1032.1
20260831211550 54 69 3.0 10.0 0.00 0.00 0.00 87 1032.0
20260831210100 52 32 3.0 9.0 0.00 0.00 0.00 88 1031.7
20260831204557 51 20 3.0 9.0 0.00 0.00 0.00 89 1031.6
20260831203059 50 23 2.0 7.0 0.00 0.00 0.00 89 1031.4
20260831201557 50 0 3.0 7.0 0.00 0.00 0.00 90 1031.1
20260831200111 50 42 1.0 7.0 0.00 0.00 0.00 90 1031.0
20260831194610 50 24 1.0 9.0 0.00 0.00 0.00 90 1030.8
20260831193050 50 0 0.0 4.0 0.00 0.00 0.00 90 1030.7
20260831191555 50 0 0.0 3.0 0.00 0.00 0.00 90 1030.7
20260831190106 50 0 0.0 4.0 0.00 0.00 0.00 90 1030.6
20260831184600 50 0 1.0 6.0 0.00 0.00 0.00 90 1030.5
20260831183059 50 0 1.0 5.0 0.00 0.00 0.00 91 1030.2
20260831181559 50 38 2.0 7.0 0.00 0.00 0.00 91 1030.2
20260831180101 50 0 1.0 6.0 0.00 0.00 0.00 91 1030.3
20260831174559 50 0 0.0 2.0 0.00 0.00 0.00 90 1030.3
20260831173101 51 15 0.0 7.0 0.00 0.00 0.00 90 1030.4
20260831171556 51 0 0.0 6.0 0.00 0.00 0.00 90 1030.4
20260831170055 51 19 2.0 5.0 0.00 0.00 0.00 90 1030.5
20260831164551 51 0 3.0 8.0 0.00 0.00 0.00 90 1030.7
20260831163102 52 44 1.0 9.0 0.00 0.00 0.00 90 1030.9
20260831161556 52 49 1.0 8.0 0.00 0.00 0.00 89 1031.0
20260831154619 52 32 3.0 8.0 0.00 0.00 0.00 89 1031.5
20260831153059 53 42 2.0 12.0 0.00 0.00 0.00 89 1031.7
20260831151550 53 27 2.0 10.0 0.00 0.00 0.00 89 1031.8
20260831150110 53 38 4.0 9.0 0.00 0.00 0.00 89 1031.7
20260831144603 53 0 4.0 11.0 0.00 0.00 0.00 89 1031.9
20260831143059 53 40 4.0 10.0 0.00 0.00 0.00 89 1032.1
20260831141604 53 32 3.0 11.0 0.00 0.00 0.00 89 1032.2
20260831140058 54 13 3.0 11.0 0.00 0.00 0.00 88 1032.5
20260831134555 54 360 3.0 9.0 0.00 0.00 0.00 88 1032.6
20260831133050 54 37 4.0 11.0 0.00 0.00 0.00 88 1032.8
20260831131604 54 21 4.0 11.0 0.00 0.00 0.00 88 1032.8
20260831130100 55 35 1.0 9.0 0.00 0.00 0.00 87 1033.1
20260831124557 55 0 1.0 11.0 0.00 0.00 0.00 87 1033.2
20260831123057 55 0 2.0 12.0 0.00 0.00 0.00 87 1033.3
20260831121553 55 26 2.0 9.0 0.00 0.00 0.00 87 1033.1
20260831120112 55 36 4.0 12.0 0.00 0.00 0.00 86 1033.1
20260831114558 55 46 3.0 11.0 0.00 0.00 0.00 86 1033.1
20260831113102 55 10 4.0 13.0 0.00 0.00 0.00 86 1033.0
20260831111611 55 13 4.0 12.0 0.00 0.00 0.00 85 1033.0